RH
70 90 89 74 67 62 43 41 47 51 49 29 20 24 34 61 91 87 100 100 100 100 100 100 98 100 100 100 100 99 100 98 95 100 95 94 91 93 96 96 90 100 99
94 95 98 87 71 66 45 45 48 57 53 25 20 23 33 60 95 96 100 100 100 99 100 98 99 100 100 99 100 100 100 98 98 98 99 100 94 90 86 100 100 100 100
89 98 100 98 86 68 46 46 45 55 55 24 20 24 30 51 98 100 99 100 100 99 99 100 99 100 100 100 100 100 100 100 100 100 99 99 98 98 97 96 100 99 98
97 94 96 98 97 69 46 45 42 51 59 29 22 29 33 44 91 100 100 99 100 100 100 100 100 100 100 100 100 100 100 100 100 100 100 100 100 99 99 100 100 97 98
100 96 99 99 99 80 61 55 58 58 64 32 23 27 33 39 80 99 100 100 99 100 100 99 100 99 100 100 100 100 100 100 100 100 100 100 100 99 100 100 99 97 99
100 91 99 100 100 92 73 66 76 73 70 51 27 28 31 33 77 94 98 100 100 99 100 100 100 100 100 100 100 100 100 100 99 100 100 100 98 96 95 100 98 100 100
99 98 99 88 98 96 98 84 76 72 69 74 52 30 33 37 66 83 99 100 99 99 100 100 100 100 100 100 100 100 100 96 100 99 94 90 99 93 92 91 89 96 95
99 100 91 100 100 94 97 91 76 73 83 79 76 40 41 43 66 98 96 99 100 100 82 99 100 100 100 100 100 98 97 99 98 86 90 93 98 99 96 98 100 98 96
99 100 100 100 100 100 100 95 93 95 97 92 93 69 44 65 76 84 100 98 100 100 100 100 100 97 98 100 100 100 100 96 92 93 100 98 97 100 98 100 99 93 98
99 98 97 100 100 100 100 100 100 96 97 98 100 99 100 66 83 98 97 100 100 100 100 100 100 100 100 99 98 95 99 99 100 100 100 100 99 98 82 46 30 36 30
94 97 97 99 98 99 100 100 100 100 99 98 100 100 100 100 100 100 100 100 99 98 99 100 100 98 90 96 100 99 100 100 100 100 99 86 44 34 28 26 27 28 29
94 95 97 96 96 96 98 98 99 99 99 99 100 99 99 100 99 100 100 100 100 100 100 100 100 100 99 99 100 100 99 97 69 51 37 38 34 32 31 31 33 34 33
87 90 95 95 95 95 97 97 98 98 99 96 97 98 98 98 98 98 98 98 98 98 98 98 98 99 99 99 95 94 67 48 44 38 36 40 38 37 36 34 32 32 32
93 92 94 96 96 96 95 94 95 96 97 96 96 99 97 97 97 96 96 96 96 96 96 95 95 95 93 84 65 60 68 78 76 64 50 43 38 35 33 33 32 30 24
94 92 94 95 96 97 97 97 96 97 97 96 96 97 96 96 96 96 96 96 96 96 97 97 96 97 97 97 96 97 95 92 92 77 56 42 37 35 32 26 16 8 6
95 95 95 96 96 97 95 96 96 97 96 96 97 97 97 96 96 96 96 96 95 95 96 95 95 94 93 93 89 78 55 46 42 39 35 28 18 10 7 7 7 7 7
93 91 91 93 94 95 94 92 93 94 95 96 96 95 95 95 95 96 95 95 95 94 92 92 77 61 51 47 45 42 39 33 22 14 8 6 7 7 8 8 8 9 8
93 93 93 95 95 94 94 95 94 95 95 95 95 92 86 80 77 72 67 62 57 54 54 49 45 41 37 31 23 13 8 7 7 7 8 8 9 9 9 9 9 8 8
93 94 96 96 96 96 96 96 95 95 94 92 89 82 74 68 64 60 58 53 49 45 39 32 23 15 10 8 7 7 8 8 8 9 9 9 10 9 8 8 7 6 6
90 91 92 95 97 97 96 95 94 91 86 80 73 66 61 56 50 47 42 36 29 22 14 10 8 7 7 7 8 8 8 8 9 9 9 9 8 8 7 6 6 7 7
92 93 94 94 95 96 95 92 86 79 72 63 55 51 45 39 34 26 19 14 10 8 8 8 8 8 8 8 8 8 9 9 9 8 8 7 7 7 8 8 8 8 9
88 89 91 92 92 87 82 78 67 55 50 46 39 33 27 21 16 12 10 9 8 8 8 8 8 8 8 8 8 8 9 8 8 8 8 8 9 9 9 10 10 11 11
85 88 89 90 91 91 89 85 80 74 59 44 24 16 14 12 11 10 10 9 9 9 9 9 9 9 9 9 9 9 9 9 9 10 10 11 11 12 12 12 12 12 12
34 39 43 43 42 41 40 37 32 28 24 20 14 12 10 10 10 10 10 10 10 10 10 10 10 10 10 11 11 11 11 11 12 13 13 14 14 14 14 14 13 14 15
12 12 12 12 12 12 12 12 12 12 12 12 12 12 11 11 11 11 11 11 12 12 12 12 12 13 13 13 13 13 14 15 15 16 16 16 15 15 15 16 16 17 18
13 13 14 14 14 14 14 14 14 15 15 15 15 15 15 15 15 15 14 14 14 15 16 16 16 16 16 16 17 17 17 17 17 17 17 17 17 18 19 20 21 21 21
Wind_Speed
33 34 31 29 27 30 27 26 27 24 22 20 20 17 18 25 27 27 32 32 28 31 26 32 42 34 42 32 35 26 26 29 32 27 29 21 20 24 23 20 24 26 26
38 37 29 29 30 29 28 27 25 25 20 21 21 17 18 19 21 22 24 20 18 22 25 28 38 41 38 35 33 29 31 35 32 30 31 24 26 25 26 30 29 34 36
32 30 31 28 32 30 25 26 25 24 20 22 20 14 14 16 19 19 21 21 16 25 25 28 27 36 33 35 30 34 35 35 34 26 29 30 33 33 33 35 35 38 35
34 37 46 35 32 31 28 27 24 23 21 21 17 15 14 13 12 17 15 13 22 17 23 25 33 30 38 34 36 33 31 30 31 29 26 27 31 33 34 32 29 31 34
17 27 29 37 27 27 26 25 23 20 20 20 17 17 14 11 12 16 16 14 14 18 19 21 30 33 34 35 33 29 33 34 29 23 23 24 27 22 27 26 25 24 29
17 19 5 28 19 21 22 24 16 13 17 20 19 18 15 12 11 17 21 15 16 15 11 20 29 32 25 28 31 33 26 23 25 19 18 19 19 22 27 30 31 28 30
14 15 16 13 24 19 21 21 20 20 22 22 22 21 17 13 14 12 14 15 14 13 18 18 20 22 31 34 28 26 28 21 21 22 24 25 22 21 24 25 29 31 33
16 24 18 27 27 20 23 24 23 28 26 28 27 24 20 17 16 20 22 22 20 20 19 18 22 24 26 31 28 29 20 26 26 22 23 27 30 29 26 26 30 32 33
15 15 24 20 19 23 23 23 22 28 28 27 27 26 25 22 21 22 25 27 28 25 23 23 27 28 31 28 27 30 29 30 30 29 29 28 29 30 32 33 35 37 37
10 16 21 23 29 30 28 26 28 29 27 25 27 26 26 27 23 23 25 27 29 30 31 32 34 34 33 32 29 27 27 31 31 33 32 35 33 33 36 35 33 34 35
3 4 8 12 17 20 25 33 37 34 34 33 33 31 28 25 26 27 29 29 31 30 32 32 31 28 30 31 31 32 36 38 36 37 37 32 29 26 27 27 27 28 29
4 4 2 2 3 7 11 19 25 26 24 26 28 31 33 34 30 36 36 41 41 40 41 37 40 38 35 37 37 38 33 27 23 27 27 23 22 24 25 26 27 28 29
1 2 1 1 1 1 4 7 8 11 14 16 19 22 21 19 23 23 23 23 23 26 26 26 28 33 33 30 18 14 19 21 20 21 20 21 24 26 27 27 28 28 28
1 1 1 0 2 3 4 3 1 2 4 5 7 9 10 12 16 16 12 11 11 10 14 14 9 10 11 12 14 16 18 20 21 23 24 25 24 24 25 27 29 30 30
3 2 1 2 2 1 1 2 0 0 1 0 3 4 5 5 6 6 7 8 8 10 12 13 15 16 17 16 17 18 20 23 26 27 28 28 28 29 29 29 29 29 30
4 5 4 4 3 3 3 3 3 3 4 5 6 6 7 8 8 8 10 10 11 12 12 13 14 16 17 18 20 22 24 25 25 25 25 24 25 26 27 29 30 31 33
7 8 9 9 8 9 8 8 8 9 10 11 11 12 13 13 14 15 15 14 15 16 17 18 17 17 18 19 21 22 22 23 23 23 23 24 25 27 29 31 33 35 36
11 11 11 11 12 12 11 11 11 12 11 11 12 12 13 14 14 14 14 15 15 15 15 15 16 17 18 19 20 21 21 22 22 23 24 26 28 30 32 33 34 35 37
14 14 14 14 14 14 13 13 13 13 13 13 14 14 14 15 15 15 16 16 16 16 16 17 18 18 19 20 21 22 23 24 25 26 28 30 31 32 33 34 35 36 36
15 16 16 15 15 14 14 14 14 14 14 15 15 16 16 16 16 17 17 18 18 19 19 19 20 21 22 23 24 24 25 26 28 29 30 31 32 33 33 34 34 34 34
17 16 16 16 17 17 17 16 16 16 17 17 18 18 18 19 19 20 20 20 21 21 21 21 22 23 24 25 26 26 28 29 30 31 31 31 32 32 32 32 32 32 32
18 19 19 18 18 18 19 19 19 20 20 21 21 22 23 23 23 23 23 23 24 24 24 25 25 26 26 27 28 29 30 30 30 30 30 30 30 30 30 30 29 29 29
21 22 22 22 22 23 23 24 24 25 25 26 26 26 26 25 26 26 26 26 27 27 27 27 28 28 28 29 29 29 29 29 29 29 28 28 28 28 28 27 27 27 27
27 27 27 27 27 27 27 28 28 28 28 29 29 29 29 29 28 28 28 28 28 29 29 29 29 29 29 29 29 29 28 28 27 27 26 26 26 26 26 26 26 26 25
29 29 29 28 28 28 28 28 28 28 28 28 28 28 28 29 30 30 29 29 29 29 29 29 28 28 28 28 28 27 27 26 25 25 25 25 26 26 26 27 27 25 24
29 29 29 29 29 29 29 29 28 28 28 28 27 27 27 28 28 28 28 29 28 27 27 27 27 27 27 26 25 25 25 25 25 25 26 26 26 26 26 26 26 25 26
Wind_Direction
215 227 227 227 222 228 233 230 225 233 253 263 258 249 249 250 244 249 251 262 247 242 241 230 227 227 216 229 225 216 206 210 213 207 208 214 231 242 251 256 258 262 265
223 224 218 220 223 224 228 222 222 231 249 257 251 247 251 247 246 246 259 253 218 229 227 224 218 223 229 234 223 215 209 223 227 226 233 236 234 246 248 249 247 253 254
228 222 218 218 221 226 219 217 224 232 245 254 248 251 259 262 251 250 250 249 242 242 225 229 220 213 225 219 218 226 223 227 240 236 232 235 241 245 248 255 264 257 251
239 230 245 221 226 225 217 218 225 235 249 252 249 248 253 254 251 230 251 257 235 218 232 221 214 230 217 225 224 231 231 234 248 264 251 248 250 249 252 255 250 256 254
218 240 228 195 211 216 215 221 228 235 252 254 245 248 251 249 241 215 235 247 275 215 221 219 212 223 218 221 227 223 235 251 247 233 243 249 259 253 249 247 254 251 264
257 208 245 195 198 222 219 222 223 239 251 265 253 247 247 242 244 218 216 242 250 228 205 202 211 229 220 219 228 232 240 236 253 246 247 249 263 261 258 255 257 254 258
237 213 190 223 214 210 219 223 232 239 247 255 264 252 245 234 223 208 212 226 239 239 237 228 223 232 225 230 242 239 246 237 246 241 246 249 258 254 260 259 255 254 258
211 209 247 212 193 216 229 222 229 244 250 255 259 252 242 235 219 211 221 216 231 226 236 233 223 239 235 239 234 242 227 239 243 238 242 250 258 259 258 260 268 258 268
235 231 207 198 198 217 222 243 238 248 253 259 262 255 250 236 227 225 221 225 230 227 231 225 236 241 238 237 239 239 239 246 240 242 256 255 258 264 264 265 266 266 267
253 238 240 235 225 215 226 224 238 250 250 260 263 263 263 253 240 233 235 228 229 235 238 241 241 240 235 237 240 245 241 242 244 254 254 261 260 257 265 268 269 266 267
278 296 281 274 253 234 225 223 228 224 245 256 241 251 246 236 244 240 238 234 237 240 232 233 241 248 245 234 238 241 246 251 253 255 257 263 263 263 264 264 265 265 266
356 47 37 313 266 248 245 249 248 242 231 231 224 227 233 247 244 238 233 234 231 225 226 233 226 228 235 246 243 238 241 254 264 264 256 255 261 263 265 267 269 271 274
357 359 9 299 347 292 240 230 228 238 240 246 244 242 234 223 221 219 220 215 214 218 219 224 228 232 233 238 245 261 254 249 250 253 258 262 267 270 272 273 276 278 282
15 56 2 159 89 99 101 122 134 191 185 192 224 226 234 247 252 262 254 248 236 220 224 221 202 206 204 210 226 237 249 259 268 274 272 271 272 277 284 287 284 283 285
324 308 348 5 28 18 322 344 48 192 349 202 228 223 199 193 204 212 227 229 230 235 232 234 244 252 253 255 264 277 284 285 282 282 279 278 279 279 280 282 284 286 288
318 306 303 300 291 288 292 295 300 290 271 281 287 285 280 278 278 276 272 265 267 274 277 277 278 277 279 278 277 272 265 263 263 264 269 274 277 280 283 285 286 287 288
302 296 292 294 289 281 285 271 264 264 267 268 264 261 262 260 258 258 258 259 261 260 258 258 256 253 252 253 256 258 261 263 268 274 278 279 281 284 286 287 287 288 288
303 300 296 294 292 289 287 284 277 272 271 268 264 263 262 259 258 257 257 257 256 255 258 260 262 264 265 266 268 269 271 273 275 278 281 282 284 285 286 286 288 290 292
300 297 294 289 287 285 284 283 282 281 276 270 267 263 261 262 262 262 263 264 266 266 266 266 267 267 267 268 269 272 275 278 280 281 282 283 284 285 287 289 291 292 293
293 292 290 289 288 284 281 278 277 273 269 268 266 264 264 264 265 266 265 265 264 264 263 264 264 265 266 269 272 274 276 278 279 282 284 287 289 290 291 292 293 293 295
290 287 284 282 281 280 279 276 274 272 272 271 270 269 268 266 266 267 268 269 270 270 270 269 270 271 272 274 275 278 280 282 284 286 287 289 289 290 292 292 294 297 299
287 285 284 282 280 278 277 276 275 274 273 272 272 273 273 274 274 274 274 273 272 273 273 274 275 276 278 279 280 282 283 284 285 286 287 289 290 291 293 295 297 298 299
284 282 279 277 275 274 273 272 272 274 275 276 276 276 276 275 275 274 273 273 274 274 274 274 274 275 276 277 279 280 282 284 286 287 288 289 290 292 293 295 295 296 297
286 283 280 279 277 274 273 273 273 272 271 270 270 270 271 271 271 271 272 273 274 273 273 274 276 278 280 281 281 283 284 285 285 286 286 287 288 290 291 292 292 294 296
285 283 282 280 278 276 275 272 270 269 268 268 267 267 268 268 268 270 271 271 271 273 277 278 278 278 277 278 279 281 281 282 282 283 285 287 287 288 289 289 292 295 297
287 285 283 281 280 279 278 277 276 275 273 271 270 269 269 269 270 270 271 271 272 272 272 273 274 275 275 276 276 277 279 281 282 282 282 283 285 287 289 291 294 295 295